Wind_Speed
35 35 35 36 35 35 35 33 32 30 29 28 27 26 26 26 26 25 23 21 22 22 21 22 22 21 21 21 20 19 19 19 18 19 19 18 17 17 17 16 15 15 14
38 37 37 38 37 38 37 35 34 32 30 29 28 26 27 27 27 25 24 23 22 22 22 22 22 22 22 21 21 20 20 20 20 21 21 20 20 19 19 19 18 17 17
40 38 38 38 38 39 37 35 33 33 31 31 29 28 27 26 28 27 26 24 23 23 23 22 22 22 22 22 21 21 21 20 21 22 23 22 21 20 21 20 20 19 18
40 39 38 37 37 36 36 34 32 33 33 32 30 29 28 28 27 26 27 26 25 24 24 23 22 23 23 22 21 21 21 21 21 22 23 23 23 22 22 22 22 21 20
39 38 37 37 37 36 36 34 33 32 32 33 32 30 30 29 27 27 27 26 26 24 23 23 22 22 22 22 21 20 20 20 20 21 21 23 24 24 23 23 23 23 23
37 36 35 36 35 34 34 33 31 30 31 32 32 30 29 29 28 28 28 27 26 24 23 23 22 22 21 21 20 19 18 18 19 19 20 20 22 23 24 24 24 24 25
37 35 34 33 33 33 32 33 31 29 30 31 31 30 30 29 29 29 27 27 26 24 24 22 22 22 22 21 20 19 18 18 18 18 18 19 19 21 22 23 24 25 25
37 36 34 33 33 33 32 32 31 30 30 31 31 31 30 30 30 29 29 28 28 26 24 23 23 22 22 21 20 19 19 18 17 17 17 17 17 19 20 22 23 24 25
38 37 37 37 36 35 34 32 31 30 30 30 31 32 32 31 29 29 29 30 29 28 27 26 24 23 22 22 21 20 19 18 17 17 16 16 16 17 17 20 21 22 24
40 40 40 39 37 36 36 34 34 33 31 31 32 33 33 32 31 30 30 30 30 30 29 27 26 25 24 23 22 21 20 19 18 17 16 16 15 16 17 18 20 20 22
42 41 41 40 40 39 37 36 35 35 34 34 33 33 33 35 34 32 31 31 30 31 30 29 28 27 25 24 22 21 21 20 19 18 16 16 15 15 16 17 18 19 20
45 44 43 42 42 41 41 40 39 38 37 37 36 35 35 36 36 35 34 32 31 32 32 32 30 29 27 25 24 24 23 21 19 18 17 16 16 15 15 16 16 17 18
47 47 47 46 45 44 44 44 43 42 41 40 40 39 38 37 38 36 35 35 34 33 33 33 32 31 29 28 26 26 24 22 20 20 18 17 16 15 15 15 15 15 17
48 49 49 48 47 47 47 47 47 46 45 44 43 43 42 40 39 39 38 37 37 35 35 34 34 33 31 29 29 28 26 24 23 21 19 18 17 16 16 15 15 16 16
49 50 50 49 49 48 48 48 49 49 49 49 47 47 46 44 43 43 42 40 39 37 36 37 36 36 35 32 31 30 29 27 25 23 21 20 19 17 17 17 16 16 17
48 49 50 50 49 49 48 49 50 51 51 51 51 50 49 49 47 46 46 44 42 41 40 39 39 38 37 35 34 33 31 29 28 26 24 23 21 19 18 18 18 18 18
48 49 49 49 49 48 48 48 49 50 51 52 53 53 53 53 53 51 49 47 45 44 43 41 41 40 39 38 37 36 35 32 31 29 27 25 24 22 20 19 19 19 18
50 50 51 51 51 51 50 49 50 51 52 52 53 54 55 56 56 55 53 51 49 47 46 45 42 42 42 40 39 38 37 36 34 32 30 28 27 24 22 21 20 20 19
50 51 52 52 52 52 52 52 52 52 53 54 54 55 56 57 58 58 57 55 53 52 50 48 47 46 44 42 41 40 39 38 37 35 33 32 29 27 25 23 22 21 21
49 49 49 50 50 52 52 52 52 52 52 54 56 56 57 57 58 60 59 58 56 55 54 52 51 49 48 46 44 42 41 40 39 38 36 34 32 30 27 26 24 23 22
47 47 47 47 47 48 49 50 51 51 51 52 53 55 57 57 58 59 60 60 59 57 56 55 54 53 51 49 46 44 44 43 41 39 38 37 35 32 30 28 26 25 23
45 44 44 44 45 45 46 47 48 49 50 50 50 52 53 56 57 57 59 60 61 61 59 58 55 55 54 51 49 48 46 44 42 41 40 38 37 35 33 30 28 26 25
41 41 41 41 41 41 41 42 44 46 47 48 50 51 51 53 54 55 56 58 60 60 60 60 58 56 55 54 52 50 48 46 43 42 41 40 38 36 34 32 29 28 26
38 37 37 36 36 36 37 38 39 42 43 45 47 49 50 51 52 53 54 54 56 57 59 60 58 57 57 56 54 52 49 48 47 44 42 40 39 37 36 34 31 29 27
35 34 33 32 31 32 33 34 35 37 39 40 41 44 46 47 49 51 52 53 54 54 55 57 58 57 57 57 56 53 51 49 47 44 42 41 40 38 37 35 33 31 29
33 31 30 29 29 29 30 31 32 33 35 36 38 40 43 45 46 47 49 51 51 51 52 53 54 56 56 57 56 53 52 50 48 44 42 40 39 39 37 36 34 32 29
Wind_Direction
294 293 292 290 288 284 281 276 269 265 263 261 260 259 258 257 258 257 254 252 249 246 244 243 243 244 243 243 244 244 244 244 244 241 239 239 239 238 235 233 233 232 231
293 292 290 289 286 283 280 276 273 267 262 260 258 260 258 255 254 254 253 249 247 247 245 242 243 243 243 244 244 244 244 244 246 244 242 241 241 240 238 237 236 236 236
291 291 290 288 284 281 277 275 272 267 261 258 256 257 257 254 254 253 253 251 246 246 245 242 241 241 241 243 244 244 245 246 246 246 244 242 241 240 240 240 238 237 238
291 289 287 287 285 281 276 274 273 269 263 258 255 255 256 256 254 251 250 249 246 244 244 241 241 240 240 241 243 245 245 245 247 247 245 242 242 242 241 241 241 239 239
292 289 285 285 284 278 274 273 272 269 263 258 254 255 255 255 253 250 248 247 243 241 241 239 238 238 239 239 241 244 244 244 246 248 246 244 243 243 244 242 242 241 241
291 288 285 283 280 276 272 271 269 263 260 256 254 253 254 252 250 249 247 245 242 238 237 236 236 236 236 237 239 240 242 242 244 246 245 246 245 245 245 244 243 243 243
290 287 285 281 279 275 272 270 265 258 257 254 252 253 251 251 247 247 245 243 240 236 237 234 233 234 234 236 237 238 239 240 242 242 244 246 248 246 245 245 245 245 244
288 285 282 279 278 275 270 268 265 259 255 253 251 252 251 250 244 244 243 241 238 236 234 233 232 232 233 234 235 235 238 239 240 240 242 246 248 248 246 246 247 247 247
288 285 283 280 278 275 271 267 264 260 256 253 250 249 247 246 243 243 241 239 236 234 232 230 230 230 231 230 231 233 235 235 237 239 241 245 249 249 247 247 249 250 248
287 285 283 280 277 274 270 266 264 259 256 252 251 248 246 244 242 241 240 238 235 233 232 231 231 230 230 228 228 229 230 231 234 238 240 244 247 251 252 253 252 255 253
285 284 282 279 276 274 270 266 262 259 256 253 251 247 245 244 241 239 238 236 235 233 231 230 230 230 228 226 226 226 228 231 233 236 239 244 247 251 254 257 257 257 256
285 283 281 278 276 275 271 267 262 258 255 252 250 249 246 244 241 239 237 235 234 233 231 230 229 228 227 228 226 227 228 231 233 235 237 243 247 252 255 258 259 259 257
286 284 281 278 275 273 271 268 264 259 255 251 250 249 247 244 241 238 237 235 233 233 232 232 230 227 226 227 227 228 229 231 233 235 237 242 247 252 256 261 261 262 260
286 284 281 279 275 272 269 266 263 260 256 252 250 249 246 242 241 240 237 236 235 233 232 232 231 229 228 227 227 228 229 230 232 236 238 243 247 251 255 261 266 267 266
287 284 281 279 275 272 268 265 261 259 256 252 249 247 245 242 242 241 239 237 236 234 233 233 232 230 230 229 229 229 230 232 233 236 239 241 245 250 255 261 267 271 271
288 285 282 279 275 272 268 264 260 258 255 252 249 246 244 242 242 241 239 238 237 236 234 233 233 232 230 229 230 231 232 233 234 235 237 240 244 249 256 261 266 270 272
288 285 283 280 276 273 269 265 261 257 255 252 249 245 244 242 242 241 239 237 237 236 236 235 234 233 232 231 231 231 232 233 234 235 236 239 243 248 254 260 264 270 274
288 285 282 278 275 272 268 265 262 257 254 252 249 246 243 242 241 240 239 237 236 236 236 235 235 234 233 232 232 232 232 233 235 236 237 239 242 246 252 258 263 268 274
289 286 282 278 274 271 268 264 261 257 254 251 248 245 243 241 239 239 238 237 237 236 236 234 234 234 233 233 232 232 233 233 234 235 237 239 241 245 250 255 260 266 272
291 287 283 279 275 271 267 264 260 257 254 251 248 245 243 242 240 239 238 237 237 236 235 235 235 234 234 234 234 233 233 233 233 234 236 238 240 244 248 252 258 263 270
293 288 284 280 275 271 267 263 259 256 252 250 247 244 242 241 240 239 237 236 235 235 235 235 235 235 234 234 235 234 234 234 232 233 235 237 240 243 247 251 256 261 267
295 290 287 282 277 272 268 263 260 255 252 248 245 243 241 240 239 238 237 237 236 235 235 234 235 235 234 234 234 235 235 234 233 233 234 236 239 242 245 249 253 258 263
299 294 290 284 278 272 268 263 257 253 250 247 244 241 240 238 238 238 237 237 236 236 235 235 235 234 234 234 234 235 237 236 235 234 234 235 237 240 243 246 250 255 260
304 299 293 287 280 273 267 264 258 252 247 244 242 240 240 239 237 236 237 237 236 236 236 235 235 234 234 234 234 234 235 236 237 236 235 236 236 238 240 244 248 252 256
309 304 298 291 283 275 268 263 259 253 247 242 240 240 239 239 238 236 235 236 236 236 235 235 235 233 233 234 234 233 232 234 235 236 236 236 237 238 240 242 246 250 254
314 311 304 295 288 280 271 266 259 252 246 241 239 238 237 236 235 236 235 234 234 234 234 234 234 234 233 233 232 232 231 232 233 234 237 237 236 237 238 240 244 248 251
Height
5854 5852 5851 5850 5849 5849 5849 5849 5849 5850 5852 5853 5855 5857 5858 5859 5860 5861 5863 5865 5866 5867 5870 5873 5875 5877 5879 5881 5884 5886 5888 5890 5892 5894 5896 5898 5900 5902 5904 5906 5908 5909 5911
5846 5845 5844 5842 5841 5840 5840 5841 5842 5843 5844 5846 5849 5850 5852 5853 5854 5856 5858 5860 5861 5863 5866 5868 5871 5873 5875 5877 5879 5882 5884 5886 5888 5890 5892 5894 5896 5899 5901 5903 5905 5907 5908
5838 5837 5836 5834 5833 5832 5832 5832 5834 5835 5836 5838 5841 5843 5844 5845 5847 5849 5851 5854 5856 5858 5861 5863 5866 5868 5870 5873 5875 5877 5880 5882 5884 5886 5888 5890 5893 5895 5897 5899 5902 5904 5906
5830 5829 5827 5826 5824 5823 5824 5825 5826 5827 5828 5830 5833 5836 5838 5840 5841 5843 5845 5848 5850 5852 5855 5858 5861 5863 5866 5868 5871 5873 5875 5877 5879 5881 5883 5886 5888 5891 5893 5895 5898 5900 5902
5821 5820 5819 5818 5816 5816 5817 5818 5818 5819 5820 5823 5825 5828 5830 5833 5835 5837 5841 5843 5845 5847 5850 5853 5855 5858 5861 5864 5866 5869 5871 5873 5875 5877 5879 5881 5884 5886 5889 5891 5893 5896 5898
5812 5811 5811 5809 5808 5808 5809 5809 5810 5811 5812 5814 5817 5820 5823 5826 5828 5831 5834 5837 5839 5842 5844 5847 5850 5853 5856 5859 5862 5864 5866 5868 5871 5872 5874 5877 5879 5881 5884 5886 5888 5891 5893
5805 5804 5803 5801 5800 5800 5801 5802 5802 5803 5805 5807 5810 5813 5816 5818 5821 5824 5827 5829 5833 5836 5839 5842 5845 5848 5851 5854 5857 5860 5862 5864 5866 5868 5870 5872 5874 5876 5878 5881 5883 5886 5888
5798 5796 5795 5794 5793 5792 5793 5794 5794 5795 5798 5800 5803 5805 5808 5811 5814 5817 5820 5824 5827 5830 5833 5836 5840 5843 5846 5849 5852 5855 5858 5860 5862 5864 5866 5868 5870 5872 5874 5876 5878 5880 5883
5790 5788 5787 5787 5786 5785 5786 5787 5787 5788 5790 5793 5795 5798 5801 5804 5807 5811 5813 5817 5820 5824 5827 5830 5834 5837 5840 5844 5847 5850 5853 5856 5858 5860 5862 5864 5865 5867 5869 5871 5873 5875 5877
5780 5779 5778 5778 5777 5777 5778 5779 5780 5781 5782 5785 5787 5790 5794 5797 5800 5804 5807 5810 5813 5817 5820 5823 5827 5831 5835 5838 5842 5845 5848 5851 5853 5856 5858 5860 5861 5863 5865 5866 5868 5870 5871
5769 5768 5768 5767 5767 5768 5768 5769 5771 5772 5774 5776 5779 5782 5785 5788 5792 5795 5799 5803 5806 5810 5814 5818 5822 5826 5829 5833 5837 5840 5844 5846 5849 5851 5854 5856 5858 5859 5860 5862 5863 5865 5866
5757 5756 5756 5756 5756 5757 5758 5759 5761 5762 5764 5767 5770 5773 5776 5780 5783 5787 5791 5795 5798 5802 5807 5811 5816 5820 5823 5827 5831 5835 5838 5841 5844 5847 5849 5851 5853 5855 5856 5858 5859 5860 5861
5744 5743 5743 5743 5744 5745 5746 5747 5749 5751 5754 5757 5760 5764 5767 5771 5774 5778 5783 5787 5791 5795 5799 5804 5808 5813 5817 5821 5825 5829 5833 5836 5839 5842 5844 5847 5849 5851 5852 5853 5854 5855 5857
5730 5729 5728 5728 5729 5731 5732 5734 5736 5738 5741 5745 5749 5753 5756 5760 5764 5768 5773 5778 5783 5787 5792 5796 5801 5806 5810 5815 5819 5823 5827 5830 5834 5837 5840 5842 5845 5846 5848 5849 5850 5851 5853
5715 5714 5713 5713 5714 5715 5717 5719 5721 5724 5727 5731 5736 5740 5745 5749 5753 5758 5763 5768 5773 5778 5783 5788 5793 5798 5803 5808 5812 5817 5821 5824 5828 5831 5834 5837 5840 5842 5843 5845 5846 5847 5848
5702 5699 5697 5697 5698 5699 5701 5703 5705 5708 5712 5716 5721 5726 5731 5736 5741 5747 5752 5757 5763 5768 5774 5779 5784 5789 5794 5800 5805 5809 5814 5818 5822 5825 5829 5832 5834 5837 5839 5840 5842 5843 5844
5688 5685 5682 5681 5681 5682 5684 5686 5688 5692 5696 5700 5704 5710 5716 5722 5728 5734 5740 5745 5751 5757 5763 5769 5774 5780 5785 5791 5796 5801 5806 5810 5815 5819 5823 5826 5829 5831 5834 5835 5837 5838 5839
5674 5670 5667 5666 5665 5666 5667 5669 5671 5675 5679 5683 5688 5694 5700 5706 5712 5719 5725 5732 5739 5745 5752 5758 5764 5770 5776 5782 5787 5792 5798 5803 5807 5812 5816 5820 5823 5826 5828 5830 5832 5833 5834
5657 5654 5650 5648 5648 5648 5649 5651 5654 5657 5661 5666 5671 5677 5683 5689 5696 5703 5710 5718 5725 5732 5739 5746 5753 5759 5765 5771 5777 5783 5789 5794 5799 5804 5808 5813 5816 5820 5823 5825 5826 5828 5829
5640 5636 5633 5631 5630 5629 5631 5633 5635 5639 5643 5647 5653 5659 5666 5672 5680 5687 5695 5702 5710 5718 5726 5733 5740 5747 5754 5761 5767 5773 5779 5785 5791 5796 5800 5805 5809 5813 5816 5819 5821 5822 5823
5623 5619 5616 5614 5612 5611 5612 5614 5617 5620 5625 5630 5635 5641 5648 5655 5662 5670 5678 5687 5695 5702 5711 5719 5727 5735 5742 5749 5756 5763 5769 5775 5781 5787 5792 5797 5802 5806 5809 5812 5815 5816 5818
5607 5603 5600 5597 5595 5595 5595 5596 5599 5603 5608 5613 5618 5624 5630 5638 5646 5654 5662 5671 5679 5688 5696 5705 5713 5721 5730 5737 5745 5752 5758 5765 5772 5778 5784 5789 5794 5798 5802 5805 5808 5810 5812
5593 5588 5584 5581 5579 5579 5579 5580 5582 5585 5591 5596 5602 5609 5614 5622 5630 5638 5646 5655 5664 5672 5682 5691 5699 5708 5716 5725 5733 5740 5747 5754 5761 5768 5774 5780 5785 5790 5794 5798 5801 5803 5805
5580 5575 5571 5567 5565 5564 5564 5565 5566 5570 5575 5581 5587 5594 5600 5607 5615 5623 5632 5640 5648 5657 5667 5677 5686 5694 5702 5711 5719 5728 5735 5743 5751 5758 5765 5771 5777 5782 5786 5790 5794 5796 5799
5569 5564 5559 5555 5553 5552 5551 5552 5553 5556 5561 5567 5573 5580 5587 5593 5601 5610 5619 5627 5635 5642 5650 5660 5670 5679 5688 5698 5707 5716 5724 5732 5740 5748 5755 5762 5768 5773 5778 5782 5786 5789 5792
5560 5554 5550 5546 5543 5541 5540 5541 5542 5545 5550 5556 5562 5568 5575 5582 5588 5596 5605 5613 5621 5629 5638 5647 5656 5665 5675 5684 5694 5703 5713 5721 5729 5738 5746 5753 5758 5764 5769 5774 5778 5782 5785